Ketchikan, AK

11:16 PM AKDT on September 22, 2018 (GMT -0800)
Ketchikan International

Weather History for PAKT - November, 2017

Change the Weather History Date:

Tuesday, November 7, 2017

  Actual Average Record
Temperature  
Mean Temperature 40 °F -  
Max Temperature 42 °F 45 °F 59 °F (1965)
Min Temperature 36 °F 34 °F 15 °F (1973)
Degree Days  
Heating Degree Days 26    
Moisture  
Dew Point 37 °F    
Average Humidity 87    
Maximum Humidity 96    
Minimum Humidity 76    
Precipitation  
Precipitation 0.11 in - - ()
Sea Level Pressure  
Sea Level Pressure 29.95 in    
Wind  
Wind Speed 8 mph (SSE)    
Max Wind Speed 15 mph    
Max Gust Speed 23 mph    
Visibility 10 miles    
Events Rain    
Averages and records for this station are not official NWS values.
T = Trace of Precipitation, MM = Missing Value Source: NWS Daily Summary

Daily Weather History Graph

Daily Weather History Graph

Search for Another Location

Airport or City:

Astronomy

Nov. 07, 2017 Rise Set
Actual Time 7:05 AM AKST 3:55 PM AKST
Civil Twilight 6:25 AM AKST 4:35 PM AKST
Nautical Twilight 5:41 AM AKST 5:19 PM AKST
Astronomical Twilight 4:58 AM AKST 6:01 PM AKST
Moon 7:17 PM AKST (11/7) 11:04 AM AKST (11/7)
Length of Visible Light 10h 10m
Length of Day
8h 50m
Waning Gibbous, 82% of the Moon is Illuminated
Nov 7
Waning Gibbous
Nov 10
Last Quarter
Nov 18
New
Nov 26
First Quarter
Dec 3
Full

Hourly Weather History & Observations

Time (AKST) Temp. Windchill Dew Point Humidity Pressure Visibility Wind Dir Wind Speed Gust Speed Precip Events Conditions
12:14 AM 39.9 °F 31.8 °F 35.1 °F 83% 29.94 in 10.0 mi SSE 15.0 mph 20.7 mph 0.00 in Rain Light Rain
12:41 AM 39.9 °F 32.9 °F 35.1 °F 83% 29.94 in 10.0 mi SSE 11.5 mph 20.7 mph 0.00 in Rain Light Rain
12:53 AM 39.0 °F 31.0 °F 35.1 °F 86% 29.95 in 10.0 mi SSE 13.8 mph 20.7 mph 0.00 in Rain Light Rain
1:53 AM 39.9 °F 34.5 °F 35.1 °F 83% 29.95 in 10.0 mi South 8.1 mph 20.7 mph 0.01 in Rain Light Rain
2:53 AM 41.0 °F 34.3 °F 35.1 °F 79% 29.95 in 10.0 mi SE 11.5 mph 19.6 mph 0.01 in Rain Light Rain
3:53 AM 42.1 °F 36.1 °F 35.1 °F 76% 29.96 in 10.0 mi SE 10.4 mph 23.0 mph 0.01 in Rain Light Rain
4:08 AM 41.0 °F 34.7 °F 35.1 °F 79% 29.95 in 10.0 mi SSE 10.4 mph - 0.00 in Rain Light Rain
4:53 AM 39.9 °F 34.5 °F 36.0 °F 86% 29.95 in 10.0 mi South 8.1 mph - 0.01 in Rain Light Rain
5:39 AM 39.9 °F 35.1 °F 36.0 °F 86% 29.95 in 10.0 mi SSE 6.9 mph - 0.02 in Rain Light Rain
5:53 AM 41.0 °F 37.1 °F 35.1 °F 79% 29.95 in 10.0 mi Variable 5.8 mph - 0.02 in Rain Light Rain
6:03 AM 39.9 °F 35.1 °F 36.0 °F 86% 29.95 in 10.0 mi South 6.9 mph - 0.00 in Rain Light Rain
6:09 AM 42.8 °F 41.1 °F 35.6 °F 76% 29.95 in 10.0 mi Variable 3.5 mph - N/A Rain Light Rain
6:53 AM 39.9 °F 35.8 °F 37.0 °F 89% 29.95 in 10.0 mi Variable 5.8 mph - 0.00 in Rain Light Rain
7:53 AM 39.2 °F 37.0 °F 37.4 °F 93% 29.96 in 8.0 mi Variable 3.5 mph - N/A Rain Light Rain
8:53 AM 41.0 °F 39.0 °F 37.4 °F 87% 29.96 in 6.0 mi Variable 3.5 mph - N/A Rain Light Rain
9:53 AM 42.8 °F - 37.4 °F 81% 29.96 in 9.0 mi Calm Calm - N/A Rain Light Rain
10:53 AM 42.1 °F - 37.9 °F 85% 29.96 in 10.0 mi Calm Calm - 0.01 in Rain Light Rain
11:53 AM 42.8 °F 41.1 °F 39.2 °F 87% 29.96 in 5.0 mi Variable 3.5 mph - N/A Rain Light Rain
12:53 PM 42.1 °F 40.2 °F 39.0 °F 89% 29.96 in 10.0 mi Variable 3.5 mph - 0.04 in Rain Light Rain
1:53 PM 42.8 °F - 39.2 °F 87% 29.95 in 10.0 mi Calm Calm - N/A Rain Light Rain
3:53 PM 41.0 °F 39.0 °F 39.2 °F 93% 29.96 in 10.0 mi NNE 3.5 mph - N/A Rain Light Rain
4:53 PM 41.0 °F - 39.2 °F 93% 29.96 in 10.0 mi Calm Calm - N/A Rain Light Rain
5:53 PM 39.9 °F - 37.9 °F 93% 29.95 in 10.0 mi Calm Calm - 0.00 in   Overcast
6:53 PM 39.9 °F 37.8 °F 37.9 °F 93% 29.95 in 10.0 mi Variable 3.5 mph - 0.00 in   Overcast
7:53 PM 39.0 °F - 37.0 °F 93% 29.94 in 10.0 mi Calm Calm - N/A   Mostly Cloudy
8:53 PM 37.9 °F - 36.0 °F 93% 29.95 in 10.0 mi Calm Calm - N/A   Overcast
9:53 PM 37.0 °F - 36.0 °F 96% 29.94 in 10.0 mi Calm Calm - 0.00 in Rain Light Rain
10:53 PM 37.0 °F 32.4 °F 36.0 °F 96% 29.94 in 10.0 mi SW 5.8 mph - 0.00 in   Mostly Cloudy
11:53 PM 36.0 °F - 34.0 °F 93% 29.94 in 10.0 mi Calm Calm - N/A   Clear